Regional Weather Roundup
Issued by NWS Columbia, SC

Home | Current Version | Previous Version | Text Only | Print | Product List | Glossary On
Versions: 1 2 3 4 5 6 7 8 9 10 11 12 13 14 15 16 17 18 19 20 21 22 23 24 25 26 27 28 29 30 31 32 33 34 35 36 37 38 39 40 41 42 43 44 45 46 47 48 49 50
000
ASUS42 KCAE 292110
RWRCAE
REGIONAL WEATHER ROUNDUP
NATIONAL WEATHER SERVICE COLUMBIA SC
400 PM EST THU JAN 29 2015

NOTE: "FAIR" INDICATES FEW OR NO CLOUDS BELOW 12,000 FEET WITH NO
SIGNIFICANT WEATHER AND/OR OBSTRUCTIONS TO VISIBILITY.

NOT ALL STATIONS ARE QUALITY CONTROLLED BY THE NATIONAL
WEATHER SERVICE. USE DATA WITH CAUTION...ESPECIALLY
DEWPOINT OBSERVATIONS.

SCZ001>056-GAZ040-063>065-077-292200-
...UPSTATE SOUTH CAROLINA...

CITY           SKY/WX    TMP DP  RH WIND       PRES   REMARKS
ANDERSON       MOSUNNY   53  22  29 SW12      30.13F
LIBERTY        CLEAR     53  31  44 MISG      30.11F
SPARTANBURG    MOSUNNY   54  21  28 SW13G18   30.11F
CLEMSON        MOSUNNY   55  23  28 S8G16     30.13F
GREENVILLE     MOSUNNY   52  23  32 SW10      30.12F
GREENWOOD      PTSUNNY   53  21  28 S8        30.16F
GREER          SUNNY     52  24  33 S18       30.10F
ROCK HILL      CLOUDY    51  25  36 S9        30.14F
CHESTER        CLOUDY    52  27  37 S6        30.14F
LAURENS        MOCLDY    52  32  46 S10       30.14F


...CENTRAL SOUTH CAROLINA...

CITY           SKY/WX    TMP DP  RH WIND       PRES   REMARKS
COLUMBIA APT   PTSUNNY   57  22  25 S10       30.18F
COLUMBIA OWENS MOSUNNY   56  21  25 S10       30.19F
DARLINGTON     PTSUNNY   52  23  32 S9        30.20F
FLORENCE       MOSUNNY   55  17  22 S9G20     30.20F
MCENTIRE ANGB  MOSUNNY   55  22  27 S9        30.19F
ORANGEBURG     SUNNY     56  22  26 SW12      30.20F
SUMTER SHAW    MOSUNNY   56  21  26 SW12      30.18F
NEWBERRY       CLOUDY    52  25  35 S6        30.19S
AIKEN          FAIR      55  27  33 S8        30.21F
BARNWELL       FAIR      57  28  33 S9        30.20F
MANNING        FAIR      55  10  16 S7        30.22F
CAMDEN         FAIR      54  19  26 S7        30.18F
LANCASTER      CLOUDY    50  23  34 S10       30.15F
WINNSBORO      MOCLDY    52  25  35 S9        30.15F


...EASTERN AND COASTAL SOUTH CAROLINA...

CITY           SKY/WX    TMP DP  RH WIND       PRES   REMARKS
MYRTLE BEACH   SUNNY     50  30  46 S10       30.27F
N MYRTLE BCH   PTSUNNY   49  30  48 S7        30.24F
CONWAY         FAIR      52  32  46 SE6       30.23F
MARION         FAIR      54  19  26 CALM      30.21F
HARTSVILLE     FAIR      55  30  38 S7        30.18F
FLORENCE       MOSUNNY   55  17  22 S9G20     30.20F
DARLINGTON     PTSUNNY   52  23  32 S9        30.20F
CHARLESTON APT PTSUNNY   56  36  47 SW9       30.23F
MOUNT PLEASANT FAIR      55  37  50 S9        30.24F
WALTERBORO     PTCLDY    59  30  33 S6        30.23F
BEAUFORT       PTSUNNY   56  41  57 S9        30.24S


...EASTERN GEORGIA...

CITY           SKY/WX    TMP DP  RH WIND       PRES   REMARKS
AUGUSTA BUSH F SUNNY     58  24  27 SW13      30.19F
AUGUSTA DANIEL SUNNY     57  23  26 S12       30.18F
THOMSON        MOSUNNY   58  29  33 S5        30.21F
WASHINGTON     FAIR      55  32  41 S6        30.16F
CLAXTON        FAIR      61  36  39 S9        30.21F
SYLVANIA       MOCLDY    58  36  43 SW5       30.22F
STATESBORO     PTSUNNY   59  36  41 SW5       30.22S
SAVANNAH       CLOUDY    60  40  47 S10       30.22F


...SOUTHERN NORTH CAROLINA...

CITY           SKY/WX    TMP DP  RH WIND       PRES   REMARKS
CHARLOTTE      CLOUDY    50  23  34 S12       30.13F
MONROE         CLOUDY    50  22  33 S7        30.12F
WADESBORO      CLOUDY    51  19  28 S6        30.16F
ROCKINGHAM       N/A     50  22  32 S9        30.17F
RUTHERFORDTON  MOSUNNY   52  24  33 S7G16     30.09F
ASHEVILLE      SUNNY     50  25  37 S13       30.05S

$$


USA.gov is the U.S. government's official web portal to all federal, state and local government web resources and services.